FW5380 Weather Reports


Display with metric or nautical units.
time (UTC)temp
F
wind
direction
speed
MPH
gust
MPH
rain 1hr
in
rain 24hr
in
rain mn
in
humidity
%
barometer
mb
20260831033107 59 332 0.0 4.0 0.00 0.00 0.00 60 1018.8
20260831031531 61 315 0.0 1.0 0.00 0.00 0.00 54 1018.8
20260831030029 63 313 0.0 5.0 0.00 0.00 0.00 51 1018.7
20260831024602 66 300 0.0 2.0 0.00 0.00 0.00 47 1018.6
20260831023031 68 331 1.0 6.0 0.00 0.00 0.00 43 1018.5
20260831021608 69 323 3.0 8.0 0.00 0.00 0.00 41 1018.5
20260831020033 70 322 3.0 7.0 0.00 0.00 0.00 40 1018.6
20260831013029 72 328 6.0 11.0 0.00 0.00 0.00 37 1018.5
20260831011530 73 327 6.0 12.0 0.00 0.00 0.00 36 1018.5
20260831010030 74 329 5.0 12.0 0.00 0.00 0.00 35 1018.6
20260831004530 76 331 6.0 11.0 0.00 0.00 0.00 35 1018.7
20260831003030 76 333 4.0 12.0 0.00 0.00 0.00 36 1018.7
20260831001529 76 319 4.0 8.0 0.00 0.00 0.00 37 1018.8
20260830234531 75 341 3.0 8.0 0.00 0.00 0.00 38 1019.0
20260830233104 75 320 4.0 9.0 0.00 0.00 0.00 38 1019.1
20260830230029 74 327 4.0 9.0 0.00 0.00 0.00 40 1019.4
20260830224533 73 321 4.0 9.0 0.00 0.00 0.00 40 1019.7
20260830223030 73 322 5.0 12.0 0.00 0.00 0.00 40 1019.8
20260830221532 73 321 5.0 14.0 0.00 0.00 0.00 41 1020.0
20260830220147 73 320 5.0 13.0 0.00 0.00 0.00 42 1020.4
20260830214531 72 337 5.0 11.0 0.00 0.00 0.00 43 1020.5
20260830211530 71 325 5.0 11.0 0.00 0.00 0.00 45 1020.6
20260830210030 70 329 5.0 10.0 0.00 0.00 0.00 46 1020.7
20260830204532 71 334 5.0 12.0 0.00 0.00 0.00 45 1020.8
20260830203030 73 320 5.0 11.0 0.00 0.00 0.00 43 1021.0
20260830201531 72 345 5.0 10.0 0.00 0.00 0.00 46 1021.0
20260830200031 70 327 3.0 8.0 0.00 0.00 0.00 48 1021.2
20260830194534 68 4 3.0 11.0 0.00 0.00 0.00 50 1021.4
20260830193146 67 16 3.0 9.0 0.00 0.00 0.00 51 1021.6
20260830191530 67 349 2.0 8.0 0.00 0.00 0.00 51 1021.7
20260830190032 66 341 3.0 9.0 0.00 0.00 0.00 52 1022.0
20260830183032 67 342 2.0 9.0 0.00 0.00 0.00 53 1022.2
20260830180030 65 46 0.0 5.0 0.00 0.00 0.00 54 1022.4
20260830174529 65 358 2.0 6.0 0.00 0.00 0.00 56 1022.5
20260830173030 64 349 1.0 6.0 0.00 0.00 0.00 58 1022.6
20260830171530 62 7 2.0 5.0 0.00 0.00 0.00 59 1022.7
20260830170106 62 26 1.0 6.0 0.00 0.00 0.00 60 1022.9
20260830164533 61 352 0.0 4.0 0.00 0.00 0.00 62 1023.1
20260830163029 60 34 0.0 4.0 0.00 0.00 0.00 66 1023.3
20260830161529 57 44 0.0 4.0 0.00 0.00 0.00 71 1023.4
20260830160031 55 35 1.0 4.0 0.00 0.00 0.00 76 1023.5
20260830154530 52 54 0.0 4.0 0.00 0.00 0.00 81 1023.6
20260830151532 48 157 0.0 2.0 0.00 0.00 0.00 83 1023.6
20260830150028 47 112 0.0 3.0 0.00 0.00 0.00 82 1023.6
20260830144609 46 191 0.0 7.0 0.00 0.00 0.00 83 1023.5
20260830143030 46 209 1.0 5.0 0.00 0.00 0.00 83 1023.4
20260830141530 45 206 3.0 7.0 0.00 0.00 0.00 83 1023.2
20260830140031 45 212 3.0 7.0 0.00 0.00 0.00 82 1023.0
20260830134530 45 202 3.0 7.0 0.00 0.00 0.00 82 1022.9
20260830133032 45 204 3.0 7.0 0.00 0.00 0.00 82 1022.9
20260830130029 45 212 3.0 8.0 0.00 0.00 0.00 81 1022.7
20260830124534 45 200 2.0 6.0 0.00 0.00 0.00 81 1022.6
20260830121531 45 207 3.0 7.0 0.00 0.00 0.00 80 1022.7
20260830120028 45 201 3.0 7.0 0.00 0.00 0.00 80 1022.7
20260830114646 46 178 4.0 7.0 0.00 0.00 0.00 80 1022.6
20260830113031 46 209 3.0 7.0 0.00 0.00 0.00 80 1022.6
20260830111603 46 201 2.0 6.0 0.00 0.00 0.00 80 1022.6
20260830103030 46 207 3.0 6.0 0.00 0.00 0.00 80 1022.6
20260830101530 46 190 3.0 5.0 0.00 0.00 0.00 79 1022.7
20260830100032 47 181 4.0 7.0 0.00 0.00 0.00 79 1022.7
20260830093031 47 192 4.0 7.0 0.00 0.00 0.00 77 1022.4
20260830091532 48 232 2.0 5.0 0.00 0.00 0.00 76 1022.5
20260830090032 49 196 2.0 4.0 0.00 0.00 0.00 75 1022.6
20260830081648 53 292 2.0 9.0 0.00 0.00 0.00 73 1022.6
20260830080030 51 289 4.0 9.0 0.00 0.00 0.00 78 1022.5
20260830074531 49 279 2.0 5.0 0.00 0.00 0.00 83 1022.5
20260830073031 47 310 3.0 7.0 0.00 0.00 0.00 86 1022.5
20260830071529 47 226 1.0 5.0 0.00 0.00 0.00 85 1022.6
20260830070030 48 180 2.0 3.0 0.00 0.00 0.00 85 1022.6
20260830064528 48 180 2.0 4.0 0.00 0.00 0.00 84 1022.6
20260830063030 48 175 2.0 4.0 0.00 0.00 0.00 82 1022.6
20260830061530 49 195 1.0 4.0 0.00 0.00 0.00 81 1022.6
20260830060031 50 190 1.0 4.0 0.00 0.00 0.00 79 1022.6
20260830054532 50 225 0.0 1.0 0.00 0.00 0.00 77 1022.6
20260830053031 51 231 0.0 2.0 0.00 0.00 0.00 75 1022.6
20260830051532 53 184 2.0 4.0 0.00 0.00 0.00 71 1022.6
20260830050031 55 194 1.0 4.0 0.00 0.00 0.00 68 1022.6
20260830044606 55 239 0.0 4.0 0.00 0.00 0.00 67 1022.5
20260830041603 56 259 0.0 4.0 0.00 0.00 0.00 66 1022.2
20260830040033 55 263 1.0 6.0 0.00 0.00 0.00 65 1022.0